User: anonymous   Login
Location: Veyrier
(46.1830°N, 6.2000°E)
Time: 10:38:27
(UTC+02:00)
Language:

Iridium 98 - Orbit

View from above orbital plane
View from above orbital plane
View from above satellite
View from above satellite

Ground track
Ground track

The orbit data is extracted from the following two-line orbital elements,

1 27451U 02031B   15126.39317139  .00000292  00000-0  97357-4 0  9994
2 27451 086.3959 345.2701 0002051 092.1015 010.8789 14.34217009680535
Epoch (UTC): 06 May 2015 09:26:10
Eccentricity: 0.0002051
inclination: 86.3959°
perigee height: 776 km
apogee height: 779 km
right ascension of ascending node: 345.2701°
argument of perigee: 92.1015°
revolutions per day: 14.34217009
mean anomaly at epoch: 10.8789°
orbit number at epoch: 68053

The dashed part of the orbit path shows where the satellite is in the earth's shadow,  

DLR